| time (UTC) | temp C | wind direction | speed KPH | gust KPH | rain 1hr cm | rain 24hr cm | rain mn cm | humidity % | barometer mb |
| 20260904131706 | 16 | 288 | 22.5 | 32.2 | 0.28 | 0.81 | 0.71 | 92 | 998.2 |
| 20260904131207 | 16 | 236 | 4.8 | 20.9 | 0.18 | 0.74 | 0.61 | 92 | 997.8 |
| 20260904130706 | 16 | 276 | 4.8 | 14.5 | 0.13 | 0.71 | 0.56 | 92 | 997.8 |
| 20260904125706 | 16 | 206 | 9.7 | 20.9 | 0.10 | 0.66 | 0.51 | 92 | 997.6 |
| 20260904125206 | 16 | 190 | 11.3 | 20.9 | 0.10 | 0.66 | 0.51 | 92 | 997.6 |
| 20260904124208 | 16 | 201 | 11.3 | 16.1 | 0.15 | 0.66 | 0.51 | 92 | 997.6 |
| 20260904123206 | 16 | 195 | 11.3 | 20.9 | 0.10 | 0.58 | 0.46 | 92 | 997.8 |
| 20260904122206 | 16 | 184 | 11.3 | 20.9 | 0.15 | 0.58 | 0.46 | 92 | 997.8 |
| 20260904115706 | 16 | 165 | 8.0 | 20.9 | 0.13 | 0.53 | 0.41 | 92 | 998.4 |
| 20260904115205 | 16 | 202 | 9.7 | 12.9 | 0.15 | 0.53 | 0.41 | 92 | 998.4 |
| 20260904114708 | 16 | 188 | 8.0 | 12.9 | 0.13 | 0.51 | 0.38 | 92 | 998.4 |
| 20260904113706 | 16 | 182 | 4.8 | 12.9 | 0.13 | 0.48 | 0.36 | 92 | 998.6 |
| 20260904112205 | 16 | 196 | 8.0 | 11.3 | 0.13 | 0.43 | 0.30 | 91 | 998.7 |
| 20260904111706 | 15 | 182 | 6.4 | 11.3 | 0.13 | 0.43 | 0.30 | 92 | 998.6 |
| 20260904111208 | 15 | 163 | 6.4 | 11.3 | 0.13 | 0.43 | 0.30 | 91 | 998.6 |
| 20260904105207 | 15 | 183 | 8.0 | 12.9 | 0.10 | 0.43 | 0.25 | 91 | 999.1 |
| 20260904104206 | 15 | 189 | 8.0 | 16.1 | 0.08 | 0.41 | 0.23 | 91 | 999.1 |
| 20260904102705 | 15 | 171 | 9.7 | 16.1 | 0.08 | 0.38 | 0.18 | 91 | 999.3 |
| 20260904102205 | 16 | 186 | 12.9 | 20.9 | 0.05 | 0.36 | 0.15 | 91 | 999.3 |
| 20260904101705 | 16 | 193 | 14.5 | 24.1 | 0.05 | 0.36 | 0.15 | 91 | 999.4 |
| 20260904095705 | 16 | 183 | 14.5 | 22.5 | 0.03 | 0.36 | 0.13 | 91 | 999.7 |
| 20260904093206 | 16 | 196 | 14.5 | 29.0 | 0.03 | 0.36 | 0.13 | 91 | 999.9 |
| 20260904092207 | 16 | 185 | 14.5 | 24.1 | 0.03 | 0.33 | 0.10 | 91 | 1000.2 |
| 20260904091705 | 16 | 185 | 14.5 | 27.4 | 0.03 | 0.36 | 0.10 | 91 | 1000.5 |
| 20260904091205 | 16 | 176 | 12.9 | 22.5 | 0.03 | 0.36 | 0.10 | 91 | 1000.5 |
| 20260904090705 | 15 | 181 | 9.7 | 20.9 | 0.05 | 0.36 | 0.10 | 91 | 1000.5 |
| 20260904090207 | 15 | 202 | 9.7 | 14.5 | 0.08 | 0.36 | 0.10 | 91 | 1000.6 |
| 20260904085707 | 15 | 177 | 12.9 | 20.9 | 0.08 | 0.36 | 0.10 | 91 | 1000.6 |
| 20260904085206 | 15 | 171 | 12.9 | 22.5 | 0.08 | 0.36 | 0.10 | 91 | 1000.8 |
| 20260904084705 | 15 | 185 | 11.3 | 22.5 | 0.10 | 0.36 | 0.10 | 91 | 1000.8 |
| 20260904084207 | 15 | 182 | 9.7 | 16.1 | 0.10 | 0.36 | 0.10 | 91 | 1000.8 |
| 20260904083706 | 15 | 173 | 11.3 | 16.1 | 0.10 | 0.36 | 0.10 | 90 | 1001.0 |
| 20260904082707 | 15 | 171 | 11.3 | 16.1 | 0.08 | 0.36 | 0.08 | 90 | 1001.0 |
| 20260904080705 | 15 | 187 | 11.3 | 16.1 | 0.05 | 0.33 | 0.05 | 90 | 1001.3 |
| 20260904075705 | 15 | 182 | 9.7 | 16.1 | 0.03 | 0.30 | 0.03 | 89 | 1001.2 |
| 20260904074706 | 15 | 182 | 14.5 | 20.9 | 0.00 | 0.28 | 0.00 | 89 | 1001.3 |
| 20260904074205 | 15 | 175 | 11.3 | 20.9 | 0.00 | 0.28 | 0.00 | 89 | 1001.5 |
| 20260904073207 | 15 | 172 | 12.9 | 20.9 | 0.00 | 0.33 | 0.00 | 89 | 1001.3 |
| 20260904072706 | 15 | 156 | 9.7 | 20.9 | 0.00 | 0.33 | 0.00 | 89 | 1001.7 |
| 20260904070705 | 14 | 165 | 8.0 | 20.9 | 0.00 | 0.36 | 0.00 | 89 | 1001.7 |
| 20260904065705 | 14 | 162 | 9.7 | 16.1 | 0.00 | 0.36 | 0.00 | 89 | 1001.9 |
| 20260904064706 | 14 | 167 | 9.7 | 11.3 | 0.00 | 0.36 | 0.00 | 89 | 1002.0 |
| 20260904064205 | 14 | 174 | 9.7 | 16.1 | 0.00 | 0.36 | 0.00 | 89 | 1002.2 |
| 20260904062705 | 14 | 162 | 8.0 | 16.1 | 0.00 | 0.36 | 0.00 | 89 | 1002.3 |
| 20260904061707 | 14 | 170 | 8.0 | 11.3 | 0.00 | 0.36 | 0.00 | 88 | 1002.7 |
| 20260904060705 | 14 | 157 | 8.0 | 12.9 | 0.00 | 0.36 | 0.00 | 88 | 1002.7 |
| 20260904055707 | 14 | 164 | 4.8 | 8.0 | 0.00 | 0.36 | 0.00 | 88 | 1002.7 |
| 20260904055205 | 14 | 167 | 6.4 | 8.0 | 0.00 | 0.36 | 0.00 | 87 | 1002.9 |
| 20260904053705 | 14 | 190 | 3.2 | 8.0 | 0.00 | 0.36 | 0.00 | 87 | 1003.2 |
| 20260904052705 | 14 | 218 | 4.8 | 9.7 | 0.00 | 0.38 | 0.00 | 87 | 1003.3 |
| 20260904052205 | 14 | 228 | 6.4 | 12.9 | 0.00 | 0.38 | 0.00 | 86 | 1003.4 |
| 20260904051706 | 14 | 231 | 8.0 | 12.9 | 0.00 | 0.38 | 0.00 | 86 | 1003.3 |
| 20260904051205 | 14 | 250 | 4.8 | 12.9 | 0.00 | 0.38 | 0.00 | 86 | 1003.3 |
| 20260904050705 | 14 | 203 | 9.7 | 16.1 | 0.00 | 0.38 | 0.00 | 86 | 1003.3 |
| 20260904045706 | 14 | 249 | 9.7 | 20.9 | 0.00 | 0.38 | 0.00 | 86 | 1003.5 |
| 20260904045205 | 14 | 257 | 9.7 | 14.5 | 0.00 | 0.38 | 0.00 | 86 | 1003.5 |
| 20260904044707 | 14 | 233 | 9.7 | 16.1 | 0.00 | 0.38 | 0.00 | 86 | 1003.4 |
| 20260904042205 | 14 | 230 | 9.7 | 16.1 | 0.00 | 0.38 | 0.00 | 86 | 1003.5 |
| 20260904035205 | 15 | 230 | 9.7 | 20.9 | 0.00 | 0.41 | 0.00 | 86 | 1003.9 |
| 20260904034206 | 15 | 281 | 8.0 | 14.5 | 0.00 | 0.41 | 0.00 | 86 | 1004.1 |
| 20260904033704 | 15 | 207 | 4.8 | 9.7 | 0.00 | 0.41 | 0.00 | 86 | 1004.1 |
| 20260904031705 | 15 | 223 | 9.7 | 12.9 | 0.00 | 0.41 | 0.00 | 86 | 1004.3 |
| 20260904030704 | 15 | 257 | 8.0 | 11.3 | 0.00 | 0.41 | 0.00 | 85 | 1004.4 |
| 20260904025204 | 15 | 257 | 8.0 | 20.9 | 0.00 | 0.41 | 0.00 | 85 | 1004.3 |
| 20260904024704 | 15 | 269 | 11.3 | 16.1 | 0.00 | 0.41 | 0.00 | 85 | 1004.3 |
| 20260904022704 | 15 | 246 | 12.9 | 25.7 | 0.00 | 0.41 | 0.00 | 84 | 1004.5 |
| 20260904021204 | 15 | 248 | 11.3 | 25.7 | 0.00 | 0.41 | 0.00 | 85 | 1004.4 |
| 20260904020704 | 15 | 247 | 16.1 | 27.4 | 0.00 | 0.41 | 0.00 | 85 | 1004.7 |
| 20260904020204 | 15 | 261 | 16.1 | 33.8 | 0.00 | 0.41 | 0.00 | 85 | 1004.7 |
| 20260904014204 | 15 | 252 | 16.1 | 27.4 | 0.00 | 0.41 | 0.00 | 85 | 1004.8 |
| 20260904013204 | 15 | 247 | 24.1 | 32.2 | 0.00 | 0.41 | 0.00 | 85 | 1004.7 |
| 20260904012704 | 15 | 247 | 19.3 | 27.4 | 0.00 | 0.41 | 0.00 | 85 | 1004.7 |
| 20260904011706 | 15 | 263 | 11.3 | 25.7 | 0.00 | 0.43 | 0.00 | 85 | 1004.6 |
| 20260904011205 | 15 | 245 | 11.3 | 27.4 | 0.00 | 0.46 | 0.00 | 85 | 1004.8 |
| 20260904010204 | 15 | 249 | 16.1 | 27.4 | 0.00 | 0.48 | 0.00 | 85 | 1004.8 |
| 20260904005204 | 15 | 244 | 14.5 | 24.1 | 0.00 | 0.48 | 0.00 | 84 | 1004.8 |
| 20260904004704 | 15 | 255 | 9.7 | 24.1 | 0.00 | 0.48 | 0.00 | 84 | 1004.9 |
| 20260904003706 | 15 | 241 | 19.3 | 25.7 | 0.00 | 0.48 | 0.00 | 84 | 1005.1 |
| 20260904003205 | 15 | 229 | 12.9 | 27.4 | 0.00 | 0.48 | 0.00 | 84 | 1005.0 |
| 20260904002206 | 15 | 267 | 16.1 | 29.0 | 0.00 | 0.48 | 0.00 | 84 | 1005.0 |
| 20260904001706 | 15 | 253 | 16.1 | 33.8 | 0.00 | 0.48 | 0.00 | 84 | 1005.0 |
| 20260904001206 | 15 | 248 | 17.7 | 27.4 | 0.00 | 0.48 | 0.00 | 84 | 1005.0 |
| 20260904000705 | 15 | 270 | 16.1 | 27.4 | 0.00 | 0.48 | 0.00 | 84 | 1004.9 |
| 20260904000211 | 15 | 259 | 11.3 | 24.1 | 0.00 | 0.48 | 0.00 | 84 | 1004.8 |
| 20260903235711 | 15 | 256 | 17.7 | 25.7 | 0.00 | 0.48 | 0.00 | 84 | 1005.3 |
| 20260903234710 | 15 | 264 | 14.5 | 27.4 | 0.00 | 0.48 | 0.00 | 84 | 1005.3 |
| 20260903233210 | 16 | 265 | 17.7 | 29.0 | 0.00 | 0.48 | 0.00 | 85 | 1005.4 |
| 20260903232710 | 16 | 243 | 19.3 | 33.8 | 0.00 | 0.48 | 0.00 | 85 | 1005.1 |
| 20260903232210 | 16 | 232 | 11.3 | 29.0 | 0.00 | 0.48 | 0.00 | 85 | 1005.0 |
| 20260903231709 | 16 | 255 | 17.7 | 32.2 | 0.00 | 0.48 | 0.00 | 85 | 1005.0 |
| 20260903230709 | 16 | 255 | 11.3 | 27.4 | 0.00 | 0.48 | 0.00 | 86 | 1005.1 |
| 20260903230212 | 16 | 279 | 17.7 | 29.0 | 0.00 | 0.48 | 0.00 | 86 | 1005.2 |
| 20260903224711 | 16 | 254 | 11.3 | 27.4 | 0.00 | 0.48 | 0.00 | 87 | 1005.3 |
| 20260903223709 | 16 | 245 | 16.1 | 29.0 | 0.00 | 0.48 | 0.00 | 87 | 1005.3 |
| 20260903222209 | 16 | 257 | 19.3 | 27.4 | 0.00 | 0.48 | 0.00 | 87 | 1005.4 |
| 20260903215709 | 16 | 259 | 17.7 | 29.0 | 0.00 | 0.48 | 0.48 | 87 | 1005.5 |
| 20260903214712 | 16 | 262 | 11.3 | 24.1 | 0.00 | 0.48 | 0.48 | 87 | 1005.4 |
| 20260903213711 | 16 | 262 | 9.7 | 25.7 | 0.00 | 0.48 | 0.48 | 87 | 1005.4 |
| 20260903211210 | 16 | 246 | 19.3 | 27.4 | 0.00 | 0.51 | 0.48 | 87 | 1005.4 |
| 20260903210709 | 16 | 250 | 16.1 | 22.5 | 0.00 | 0.51 | 0.48 | 87 | 1005.4 |
| 20260903210209 | 16 | 269 | 19.3 | 29.0 | 0.00 | 0.51 | 0.48 | 87 | 1005.4 |
| 20260903205710 | 16 | 227 | 11.3 | 20.9 | 0.00 | 0.51 | 0.48 | 87 | 1005.4 |
| 20260903204709 | 16 | 251 | 17.7 | 32.2 | 0.00 | 0.51 | 0.48 | 86 | 1005.4 |
| 20260903204210 | 16 | 265 | 11.3 | 24.1 | 0.00 | 0.51 | 0.48 | 86 | 1005.4 |
| 20260903203709 | 16 | 234 | 14.5 | 32.2 | 0.00 | 0.51 | 0.48 | 86 | 1005.4 |
| 20260903201709 | 16 | 243 | 17.7 | 32.2 | 0.00 | 0.51 | 0.48 | 85 | 1005.4 |
| 20260903200710 | 16 | 266 | 19.3 | 35.4 | 0.00 | 0.51 | 0.48 | 85 | 1005.4 |
| 20260903194709 | 17 | 251 | 16.1 | 32.2 | 0.00 | 0.51 | 0.48 | 85 | 1005.3 |
| 20260903193711 | 17 | 267 | 19.3 | 32.2 | 0.00 | 0.51 | 0.48 | 85 | 1005.3 |
| 20260903193209 | 17 | 256 | 19.3 | 29.0 | 0.00 | 0.51 | 0.48 | 85 | 1005.3 |
| 20260903192709 | 17 | 262 | 14.5 | 33.8 | 0.00 | 0.51 | 0.48 | 85 | 1005.3 |
| 20260903192209 | 17 | 264 | 22.5 | 32.2 | 0.00 | 0.51 | 0.48 | 85 | 1005.3 |
| 20260903191211 | 17 | 261 | 27.4 | 41.8 | 0.00 | 0.51 | 0.48 | 85 | 1005.2 |
| 20260903190211 | 17 | 263 | 12.9 | 29.0 | 0.00 | 0.51 | 0.48 | 86 | 1005.2 |
| 20260903185710 | 17 | 260 | 19.3 | 37.0 | 0.00 | 0.51 | 0.48 | 86 | 1005.2 |
| 20260903185209 | 17 | 259 | 16.1 | 35.4 | 0.00 | 0.51 | 0.48 | 86 | 1005.3 |
| 20260903184709 | 17 | 261 | 14.5 | 29.0 | 0.00 | 0.51 | 0.48 | 86 | 1005.2 |
| 20260903183211 | 17 | 249 | 19.3 | 27.4 | 0.00 | 0.51 | 0.48 | 86 | 1005.0 |
| 20260903182209 | 17 | 269 | 16.1 | 25.7 | 0.00 | 0.51 | 0.48 | 86 | 1004.9 |
| 20260903180710 | 17 | 265 | 16.1 | 29.0 | 0.00 | 0.51 | 0.48 | 86 | 1004.7 |
| 20260903174709 | 18 | 245 | 25.7 | 37.0 | 0.00 | 0.51 | 0.48 | 87 | 1004.5 |
| 20260903174209 | 18 | 253 | 24.1 | 37.0 | 0.00 | 0.51 | 0.48 | 87 | 1004.5 |
| 20260903173709 | 18 | 253 | 25.7 | 38.6 | 0.00 | 0.51 | 0.48 | 87 | 1004.4 |
| 20260903173210 | 18 | 244 | 20.9 | 35.4 | 0.00 | 0.51 | 0.48 | 87 | 1004.4 |
| 20260903170209 | 18 | 233 | 16.1 | 25.7 | 0.00 | 0.51 | 0.48 | 87 | 1004.2 |
| 20260903164709 | 19 | 217 | 11.3 | 22.5 | 0.00 | 0.51 | 0.48 | 88 | 1004.1 |
| 20260903164210 | 19 | 251 | 16.1 | 25.7 | 0.00 | 0.51 | 0.48 | 88 | 1004.1 |
| 20260903163709 | 18 | 253 | 12.9 | 24.1 | 0.00 | 0.51 | 0.48 | 89 | 1004.2 |
| 20260903163210 | 18 | 244 | 14.5 | 27.4 | 0.00 | 0.51 | 0.48 | 89 | 1004.2 |
| 20260903162710 | 18 | 238 | 17.7 | 33.8 | 0.00 | 0.53 | 0.48 | 89 | 1004.2 |
| 20260903162209 | 18 | 253 | 12.9 | 32.2 | 0.00 | 0.53 | 0.48 | 89 | 1004.2 |
| 20260903161209 | 18 | 254 | 9.7 | 27.4 | 0.00 | 0.53 | 0.48 | 90 | 1004.2 |
| 20260903160710 | 19 | 243 | 14.5 | 24.1 | 0.00 | 0.56 | 0.48 | 90 | 1004.2 |
| 20260903155711 | 19 | 254 | 19.3 | 32.2 | 0.00 | 0.58 | 0.48 | 91 | 1004.4 |
| 20260903155208 | 18 | 246 | 16.1 | 24.1 | 0.00 | 0.58 | 0.48 | 92 | 1004.4 |
| 20260903154209 | 18 | 256 | 9.7 | 25.7 | 0.00 | 0.58 | 0.48 | 92 | 1004.4 |
| 20260903153709 | 19 | 252 | 12.9 | 29.0 | 0.00 | 0.58 | 0.48 | 92 | 1004.4 |
| 20260903152709 | 19 | 210 | 16.1 | 32.2 | 0.03 | 0.58 | 0.48 | 93 | 1004.3 |
| 20260903152211 | 19 | 238 | 14.5 | 25.7 | 0.03 | 0.58 | 0.48 | 93 | 1004.3 |
| 20260903150209 | 18 | 243 | 20.9 | 29.0 | 0.10 | 0.61 | 0.48 | 93 | 1004.3 |
| 20260903145711 | 18 | 233 | 14.5 | 32.2 | 0.10 | 0.61 | 0.48 | 93 | 1004.3 |
| 20260903144710 | 18 | 252 | 14.5 | 27.4 | 0.10 | 0.61 | 0.48 | 93 | 1004.3 |
| 20260903144208 | 18 | 241 | 11.3 | 25.7 | 0.10 | 0.61 | 0.48 | 93 | 1004.4 |
| 20260903143710 | 18 | 237 | 8.0 | 20.9 | 0.10 | 0.66 | 0.48 | 93 | 1004.4 |
| 20260903143208 | 18 | 243 | 4.8 | 12.9 | 0.10 | 0.66 | 0.48 | 93 | 1004.4 |
| 20260903142709 | 17 | 224 | 1.6 | 16.1 | 0.08 | 0.61 | 0.46 | 93 | 1004.7 |
| 20260903141709 | 17 | 254 | 11.3 | 22.5 | 0.03 | 0.66 | 0.41 | 92 | 1004.7 |
| 20260903141209 | 17 | 213 | 14.5 | 22.5 | 0.00 | 0.66 | 0.38 | 93 | 1004.7 |
| 20260903135208 | 18 | 215 | 11.3 | 25.7 | 0.03 | 0.71 | 0.38 | 93 | 1004.6 |
| 20260903134210 | 17 | 184 | 12.9 | 22.5 | 0.03 | 0.71 | 0.38 | 93 | 1004.7 |
| 20260903133709 | 17 | 189 | 14.5 | 27.4 | 0.03 | 0.71 | 0.38 | 93 | 1004.7 |
| 20260903133209 | 17 | 189 | 11.3 | 16.1 | 0.03 | 0.71 | 0.38 | 93 | 1004.7 |
| 20260903132208 | 17 | 209 | 14.5 | 22.5 | 0.03 | 0.71 | 0.38 | 93 | 1004.8 |